Dansville, NY

4:20 AM EST on January 22, 2017 (GMT -0500)
Dansville Municipal

Weather History for KDSV - April, 2014

Change the Weather History Date:

Saturday, April 12, 2014

  Actual Average Record
Temperature  
Mean Temperature 54 °F -  
Max Temperature 71 °F 52 °F 86 °F (2001)
Min Temperature 36 °F 29 °F 13 °F (1975)
Degree Days  
Heating Degree Days 12    
Growing Degree Days 4 (Base 50)    
Moisture  
Dew Point 37 °F    
Average Humidity 62    
Maximum Humidity 97    
Minimum Humidity 21    
Precipitation  
Precipitation 0.00 in - - ()
Sea Level Pressure  
Sea Level Pressure 30.14 in    
Wind  
Wind Speed 6 mph (ESE)    
Max Wind Speed 14 mph    
Max Gust Speed -    
Visibility 10 miles    
Events      
Averages and records for this station are not official NWS values.
T = Trace of Precipitation, MM = Missing Value Source: NWS Daily Summary

Daily Weather History Graph

Daily Weather History Graph

Search for Another Location

Airport or City:

Trip Planner

Search our weather history database for the weather conditions in past years. The results will help you decide how hot, cold, wet, or windy it might be!

Date:

Astronomy

Apr. 12, 2014 Rise Set
Actual Time 6:34 AM EDT 7:49 PM EDT
Civil Twilight 6:05 AM EDT 8:18 PM EDT
Nautical Twilight 5:30 AM EDT 8:53 PM EDT
Astronomical Twilight 4:53 AM EDT 9:30 PM EDT
Moon 5:23 PM EDT (4/12) 5:03 AM EDT (4/12)
Length of Visible Light 14h 13m
Length of Day
13h 14m
Waxing Gibbous, 93% of the Moon is Illuminated
Apr 12
Waxing Gibbous
Apr 15
Full
Apr 22
Last Quarter
Apr 29
New
May 6
First Quarter

Hourly Weather History & Observations

Time (EDT) Temp. Windchill Dew Point Humidity Pressure Visibility Wind Dir Wind Speed Gust Speed Precip Events Conditions
12:54 AM 42.1 °F 39.2 °F 39.0 °F 89% 30.11 in 10.0 mi SE 4.6 mph - N/A   Clear
1:54 AM 41.0 °F 36.4 °F 37.9 °F 89% 30.12 in 10.0 mi SE 6.9 mph - N/A   Clear
2:54 AM 37.9 °F 32.7 °F 36.0 °F 93% 30.13 in 10.0 mi ESE 6.9 mph - N/A   Clear
3:54 AM 37.0 °F 31.0 °F 36.0 °F 96% 30.14 in 10.0 mi SE 8.1 mph - N/A   Clear
4:54 AM 36.0 °F 29.0 °F 35.1 °F 97% 30.15 in 10.0 mi ESE 9.2 mph - N/A   Clear
5:54 AM 36.0 °F 27.5 °F 34.0 °F 93% 30.19 in 10.0 mi SSE 12.7 mph - N/A   Clear
6:54 AM 37.0 °F 31.6 °F 35.1 °F 93% 30.19 in 10.0 mi SSE 6.9 mph - N/A   Clear
7:54 AM 41.0 °F 33.5 °F 37.0 °F 86% 30.21 in 10.0 mi SE 13.8 mph - N/A   Clear
8:54 AM 46.9 °F - 39.0 °F 74% 30.22 in 10.0 mi SSE 9.2 mph - N/A   Clear
9:54 AM 53.1 °F - 41.0 °F 64% 30.22 in 10.0 mi ESE 9.2 mph - N/A   Clear
10:54 AM 57.9 °F - 41.0 °F 53% 30.21 in 10.0 mi East 5.8 mph - N/A   Clear
11:54 AM 62.1 °F - 37.0 °F 39% 30.19 in 10.0 mi Calm Calm - N/A   Clear
12:54 PM 64.9 °F - 35.1 °F 33% 30.17 in 10.0 mi Variable 4.6 mph - N/A   Clear
1:54 PM 68.0 °F - 34.0 °F 28% 30.14 in 10.0 mi Variable 6.9 mph - N/A   Clear
2:54 PM 69.1 °F - 32.0 °F 25% 30.14 in 10.0 mi Variable 4.6 mph - N/A   Scattered Clouds
3:54 PM 71.1 °F - 28.9 °F 21% 30.12 in 10.0 mi NW 6.9 mph - N/A   Partly Cloudy
4:54 PM 69.1 °F - 33.1 °F 26% 30.11 in 10.0 mi NNW 9.2 mph - N/A   Partly Cloudy
5:54 PM 68.0 °F - 35.1 °F 30% 30.11 in 10.0 mi NNE 4.6 mph - N/A   Mostly Cloudy
6:54 PM 66.9 °F - 35.1 °F 31% 30.08 in 10.0 mi East 3.5 mph - N/A   Partly Cloudy
7:54 PM 62.1 °F - 39.9 °F 44% 30.09 in 10.0 mi NW 3.5 mph - N/A   Clear
8:54 PM 57.0 °F - 45.0 °F 64% 30.11 in 10.0 mi NNE 5.8 mph - N/A   Scattered Clouds
9:54 PM 55.9 °F - 44.1 °F 64% 30.09 in 10.0 mi Calm Calm - N/A   Mostly Cloudy
10:54 PM 52.0 °F - 43.0 °F 71% 30.07 in 10.0 mi South 3.5 mph - N/A   Clear
11:54 PM 51.1 °F - 43.0 °F 74% 30.05 in 10.0 mi Calm Calm - N/A   Scattered Clouds